<?xml version="1.0" encoding="UTF-8" standalone="no" ?>
<gpx xmlns="http://www.topografix.com/GPX/1/1" xmlns:xsi="http://www.w3.org/2001/XMLSchema-instance" xsi:schemaLocation="http://www.topografix.com/GPX/1/1 http://www.topografix.com/GPX/1/1/gpx.xsd" version="1.1" creator="VisuGPX - https://www.visugpx.com">
  <metadata>
    <name>12667123-CHAMBOST G3</name>
  </metadata>
  <trk>
    <name><![CDATA[12667123-CHAMBOST G3]]></name>
    <trkseg>
      <trkpt lat="46.01668" lon="4.51183">
        <ele>539</ele>
        <time>2021-03-11T07:34:54Z</time>
      </trkpt>
      <trkpt lat="46.01667" lon="4.51233">
        <ele>538</ele>
        <time>2021-03-11T07:35:40Z</time>
      </trkpt>
      <trkpt lat="46.01662" lon="4.51238">
        <ele>537</ele>
        <time>2021-03-11T07:35:48Z</time>
      </trkpt>
      <trkpt lat="46.01661" lon="4.51244">
        <ele>537</ele>
        <time>2021-03-11T07:35:54Z</time>
      </trkpt>
      <trkpt lat="46.01661" lon="4.51326">
        <ele>543</ele>
        <time>2021-03-11T07:37:10Z</time>
      </trkpt>
      <trkpt lat="46.0166" lon="4.51336">
        <ele>544</ele>
        <time>2021-03-11T07:37:20Z</time>
      </trkpt>
      <trkpt lat="46.01665" lon="4.51374">
        <ele>548</ele>
        <time>2021-03-11T07:37:55Z</time>
      </trkpt>
      <trkpt lat="46.01668" lon="4.51574">
        <ele>577</ele>
        <time>2021-03-11T07:41:01Z</time>
      </trkpt>
      <trkpt lat="46.01666" lon="4.51589">
        <ele>578</ele>
        <time>2021-03-11T07:41:15Z</time>
      </trkpt>
      <trkpt lat="46.01665" lon="4.5161">
        <ele>578</ele>
        <time>2021-03-11T07:41:34Z</time>
      </trkpt>
      <trkpt lat="46.01666" lon="4.51628">
        <ele>579</ele>
        <time>2021-03-11T07:41:51Z</time>
      </trkpt>
      <trkpt lat="46.01669" lon="4.51638">
        <ele>579</ele>
        <time>2021-03-11T07:42:01Z</time>
      </trkpt>
      <trkpt lat="46.01668" lon="4.51647">
        <ele>579</ele>
        <time>2021-03-11T07:42:10Z</time>
      </trkpt>
      <trkpt lat="46.01661" lon="4.51656">
        <ele>579</ele>
        <time>2021-03-11T07:42:22Z</time>
      </trkpt>
      <trkpt lat="46.01617" lon="4.51673">
        <ele>576</ele>
        <time>2021-03-11T07:43:23Z</time>
      </trkpt>
      <trkpt lat="46.01578" lon="4.51684">
        <ele>574</ele>
        <time>2021-03-11T07:44:16Z</time>
      </trkpt>
      <trkpt lat="46.01569" lon="4.51684">
        <ele>574</ele>
        <time>2021-03-11T07:44:28Z</time>
      </trkpt>
      <trkpt lat="46.01538" lon="4.51672">
        <ele>572</ele>
        <time>2021-03-11T07:45:11Z</time>
      </trkpt>
      <trkpt lat="46.0151" lon="4.51672">
        <ele>571</ele>
        <time>2021-03-11T07:45:48Z</time>
      </trkpt>
      <trkpt lat="46.01508" lon="4.51678">
        <ele>572</ele>
        <time>2021-03-11T07:45:54Z</time>
      </trkpt>
      <trkpt lat="46.01505" lon="4.51681">
        <ele>572</ele>
        <time>2021-03-11T07:45:59Z</time>
      </trkpt>
      <trkpt lat="46.01468" lon="4.51677">
        <ele>576</ele>
        <time>2021-03-11T07:46:49Z</time>
      </trkpt>
      <trkpt lat="46.01445" lon="4.5167">
        <ele>579</ele>
        <time>2021-03-11T07:47:20Z</time>
      </trkpt>
      <trkpt lat="46.01378" lon="4.51625">
        <ele>583</ele>
        <time>2021-03-11T07:48:59Z</time>
      </trkpt>
      <trkpt lat="46.01356" lon="4.51616">
        <ele>587</ele>
        <time>2021-03-11T07:49:29Z</time>
      </trkpt>
      <trkpt lat="46.01311" lon="4.51613">
        <ele>597</ele>
        <time>2021-03-11T07:50:29Z</time>
      </trkpt>
      <trkpt lat="46.01302" lon="4.5161">
        <ele>598</ele>
        <time>2021-03-11T07:50:42Z</time>
      </trkpt>
      <trkpt lat="46.01258" lon="4.51592">
        <ele>606</ele>
        <time>2021-03-11T07:51:43Z</time>
      </trkpt>
      <trkpt lat="46.01227" lon="4.51577">
        <ele>605</ele>
        <time>2021-03-11T07:52:27Z</time>
      </trkpt>
      <trkpt lat="46.01215" lon="4.51577">
        <ele>604</ele>
        <time>2021-03-11T07:52:43Z</time>
      </trkpt>
      <trkpt lat="46.0121" lon="4.51581">
        <ele>604</ele>
        <time>2021-03-11T07:52:50Z</time>
      </trkpt>
      <trkpt lat="46.01207" lon="4.51586">
        <ele>605</ele>
        <time>2021-03-11T07:52:56Z</time>
      </trkpt>
      <trkpt lat="46.01203" lon="4.51611">
        <ele>606</ele>
        <time>2021-03-11T07:53:20Z</time>
      </trkpt>
      <trkpt lat="46.01194" lon="4.51696">
        <ele>614</ele>
        <time>2021-03-11T07:54:40Z</time>
      </trkpt>
      <trkpt lat="46.01174" lon="4.51781">
        <ele>622</ele>
        <time>2021-03-11T07:56:03Z</time>
      </trkpt>
      <trkpt lat="46.01168" lon="4.51817">
        <ele>625</ele>
        <time>2021-03-11T07:56:37Z</time>
      </trkpt>
      <trkpt lat="46.0116" lon="4.51927">
        <ele>632</ele>
        <time>2021-03-11T07:58:20Z</time>
      </trkpt>
      <trkpt lat="46.01154" lon="4.51958">
        <ele>633</ele>
        <time>2021-03-11T07:58:50Z</time>
      </trkpt>
      <trkpt lat="46.01143" lon="4.51991">
        <ele>634</ele>
        <time>2021-03-11T07:59:23Z</time>
      </trkpt>
      <trkpt lat="46.01107" lon="4.52066">
        <ele>640</ele>
        <time>2021-03-11T08:00:48Z</time>
      </trkpt>
      <trkpt lat="46.01073" lon="4.5212">
        <ele>642</ele>
        <time>2021-03-11T08:01:56Z</time>
      </trkpt>
      <trkpt lat="46.01046" lon="4.52151">
        <ele>643</ele>
        <time>2021-03-11T08:02:42Z</time>
      </trkpt>
      <trkpt lat="46.01028" lon="4.52167">
        <ele>643</ele>
        <time>2021-03-11T08:03:10Z</time>
      </trkpt>
      <trkpt lat="46.01008" lon="4.52181">
        <ele>642</ele>
        <time>2021-03-11T08:03:40Z</time>
      </trkpt>
      <trkpt lat="46.00951" lon="4.52224">
        <ele>639</ele>
        <time>2021-03-11T08:05:05Z</time>
      </trkpt>
      <trkpt lat="46.00929" lon="4.52235">
        <ele>639</ele>
        <time>2021-03-11T08:05:36Z</time>
      </trkpt>
      <trkpt lat="46.00908" lon="4.52243">
        <ele>640</ele>
        <time>2021-03-11T08:06:05Z</time>
      </trkpt>
      <trkpt lat="46.00815" lon="4.52262">
        <ele>641</ele>
        <time>2021-03-11T08:08:11Z</time>
      </trkpt>
      <trkpt lat="46.00758" lon="4.52284">
        <ele>640</ele>
        <time>2021-03-11T08:09:30Z</time>
      </trkpt>
      <trkpt lat="46.00696" lon="4.52295">
        <ele>642</ele>
        <time>2021-03-11T08:10:53Z</time>
      </trkpt>
      <trkpt lat="46.0065" lon="4.52314">
        <ele>640</ele>
        <time>2021-03-11T08:11:57Z</time>
      </trkpt>
      <trkpt lat="46.00638" lon="4.52325">
        <ele>638</ele>
        <time>2021-03-11T08:12:16Z</time>
      </trkpt>
      <trkpt lat="46.00609" lon="4.52364">
        <ele>633</ele>
        <time>2021-03-11T08:13:09Z</time>
      </trkpt>
      <trkpt lat="46.00585" lon="4.52388">
        <ele>632</ele>
        <time>2021-03-11T08:13:48Z</time>
      </trkpt>
      <trkpt lat="46.00531" lon="4.52437">
        <ele>624</ele>
        <time>2021-03-11T08:15:13Z</time>
      </trkpt>
      <trkpt lat="46.00491" lon="4.52481">
        <ele>623</ele>
        <time>2021-03-11T08:16:20Z</time>
      </trkpt>
      <trkpt lat="46.00453" lon="4.52527">
        <ele>620</ele>
        <time>2021-03-11T08:17:26Z</time>
      </trkpt>
      <trkpt lat="46.00374" lon="4.52609">
        <ele>620</ele>
        <time>2021-03-11T08:19:36Z</time>
      </trkpt>
      <trkpt lat="46.00277" lon="4.52672">
        <ele>621</ele>
        <time>2021-03-11T08:21:58Z</time>
      </trkpt>
      <trkpt lat="46.00224" lon="4.52699">
        <ele>622</ele>
        <time>2021-03-11T08:23:13Z</time>
      </trkpt>
      <trkpt lat="46.00184" lon="4.5274">
        <ele>628</ele>
        <time>2021-03-11T08:24:19Z</time>
      </trkpt>
      <trkpt lat="46.0016" lon="4.52773">
        <ele>631</ele>
        <time>2021-03-11T08:25:03Z</time>
      </trkpt>
      <trkpt lat="46.00146" lon="4.52805">
        <ele>633</ele>
        <time>2021-03-11T08:25:38Z</time>
      </trkpt>
      <trkpt lat="46.00139" lon="4.52836">
        <ele>632</ele>
        <time>2021-03-11T08:26:08Z</time>
      </trkpt>
      <trkpt lat="46.0013" lon="4.52858">
        <ele>631</ele>
        <time>2021-03-11T08:26:32Z</time>
      </trkpt>
      <trkpt lat="46.00062" lon="4.52946">
        <ele>632</ele>
        <time>2021-03-11T08:28:34Z</time>
      </trkpt>
      <trkpt lat="46.00036" lon="4.52999">
        <ele>628</ele>
        <time>2021-03-11T08:29:34Z</time>
      </trkpt>
      <trkpt lat="46.0003" lon="4.53026">
        <ele>628</ele>
        <time>2021-03-11T08:30:01Z</time>
      </trkpt>
      <trkpt lat="46.00013" lon="4.53137">
        <ele>628</ele>
        <time>2021-03-11T08:31:46Z</time>
      </trkpt>
      <trkpt lat="46.00013" lon="4.53155">
        <ele>629</ele>
        <time>2021-03-11T08:32:03Z</time>
      </trkpt>
      <trkpt lat="46.00007" lon="4.53157">
        <ele>629</ele>
        <time>2021-03-11T08:32:11Z</time>
      </trkpt>
      <trkpt lat="46.00002" lon="4.53155">
        <ele>628</ele>
        <time>2021-03-11T08:32:18Z</time>
      </trkpt>
      <trkpt lat="46.00002" lon="4.53155">
        <ele>628</ele>
        <time>2021-03-11T08:32:18Z</time>
      </trkpt>
      <trkpt lat="46.00007" lon="4.53157">
        <ele>629</ele>
        <time>2021-03-11T08:32:25Z</time>
      </trkpt>
      <trkpt lat="46.00013" lon="4.53155">
        <ele>629</ele>
        <time>2021-03-11T08:32:33Z</time>
      </trkpt>
      <trkpt lat="46.00014" lon="4.53171">
        <ele>629</ele>
        <time>2021-03-11T08:32:48Z</time>
      </trkpt>
      <trkpt lat="46.00021" lon="4.53192">
        <ele>628</ele>
        <time>2021-03-11T08:33:09Z</time>
      </trkpt>
      <trkpt lat="46.00065" lon="4.5327">
        <ele>633</ele>
        <time>2021-03-11T08:34:42Z</time>
      </trkpt>
      <trkpt lat="46.00091" lon="4.53319">
        <ele>635</ele>
        <time>2021-03-11T08:35:40Z</time>
      </trkpt>
      <trkpt lat="46.00113" lon="4.53354">
        <ele>635</ele>
        <time>2021-03-11T08:36:23Z</time>
      </trkpt>
      <trkpt lat="46.0015" lon="4.53394">
        <ele>634</ele>
        <time>2021-03-11T08:37:25Z</time>
      </trkpt>
      <trkpt lat="46.00165" lon="4.53403">
        <ele>635</ele>
        <time>2021-03-11T08:37:47Z</time>
      </trkpt>
      <trkpt lat="46.00199" lon="4.53409">
        <ele>635</ele>
        <time>2021-03-11T08:38:33Z</time>
      </trkpt>
      <trkpt lat="46.00229" lon="4.53395">
        <ele>640</ele>
        <time>2021-03-11T08:39:15Z</time>
      </trkpt>
      <trkpt lat="46.00257" lon="4.53392">
        <ele>643</ele>
        <time>2021-03-11T08:39:52Z</time>
      </trkpt>
      <trkpt lat="46.00285" lon="4.53399">
        <ele>644</ele>
        <time>2021-03-11T08:40:30Z</time>
      </trkpt>
      <trkpt lat="46.00379" lon="4.53447">
        <ele>646</ele>
        <time>2021-03-11T08:42:43Z</time>
      </trkpt>
      <trkpt lat="46.00411" lon="4.53478">
        <ele>645</ele>
        <time>2021-03-11T08:43:35Z</time>
      </trkpt>
      <trkpt lat="46.00422" lon="4.53495">
        <ele>642</ele>
        <time>2021-03-11T08:43:56Z</time>
      </trkpt>
      <trkpt lat="46.0043" lon="4.53538">
        <ele>638</ele>
        <time>2021-03-11T08:44:37Z</time>
      </trkpt>
      <trkpt lat="46.00431" lon="4.53551">
        <ele>637</ele>
        <time>2021-03-11T08:44:50Z</time>
      </trkpt>
      <trkpt lat="46.00429" lon="4.53561">
        <ele>636</ele>
        <time>2021-03-11T08:44:59Z</time>
      </trkpt>
      <trkpt lat="46.00413" lon="4.53601">
        <ele>633</ele>
        <time>2021-03-11T08:45:42Z</time>
      </trkpt>
      <trkpt lat="46.00404" lon="4.53614">
        <ele>631</ele>
        <time>2021-03-11T08:45:59Z</time>
      </trkpt>
      <trkpt lat="46.00352" lon="4.53677">
        <ele>617</ele>
        <time>2021-03-11T08:47:30Z</time>
      </trkpt>
      <trkpt lat="46.0034" lon="4.53696">
        <ele>614</ele>
        <time>2021-03-11T08:47:53Z</time>
      </trkpt>
      <trkpt lat="46.00333" lon="4.53711">
        <ele>612</ele>
        <time>2021-03-11T08:48:10Z</time>
      </trkpt>
      <trkpt lat="46.00327" lon="4.53749">
        <ele>612</ele>
        <time>2021-03-11T08:48:46Z</time>
      </trkpt>
      <trkpt lat="46.00328" lon="4.53757">
        <ele>612</ele>
        <time>2021-03-11T08:48:54Z</time>
      </trkpt>
      <trkpt lat="46.00329" lon="4.53761">
        <ele>612</ele>
        <time>2021-03-11T08:48:58Z</time>
      </trkpt>
      <trkpt lat="46.00328" lon="4.53757">
        <ele>612</ele>
        <time>2021-03-11T08:49:02Z</time>
      </trkpt>
      <trkpt lat="46.00327" lon="4.53749">
        <ele>612</ele>
        <time>2021-03-11T08:49:09Z</time>
      </trkpt>
      <trkpt lat="46.0033" lon="4.53728">
        <ele>612</ele>
        <time>2021-03-11T08:49:29Z</time>
      </trkpt>
      <trkpt lat="46.00333" lon="4.53711">
        <ele>612</ele>
        <time>2021-03-11T08:49:45Z</time>
      </trkpt>
      <trkpt lat="46.0034" lon="4.53696">
        <ele>614</ele>
        <time>2021-03-11T08:50:02Z</time>
      </trkpt>
      <trkpt lat="46.00352" lon="4.53677">
        <ele>617</ele>
        <time>2021-03-11T08:50:26Z</time>
      </trkpt>
      <trkpt lat="46.00404" lon="4.53614">
        <ele>631</ele>
        <time>2021-03-11T08:51:57Z</time>
      </trkpt>
      <trkpt lat="46.00413" lon="4.53601">
        <ele>633</ele>
        <time>2021-03-11T08:52:14Z</time>
      </trkpt>
      <trkpt lat="46.00429" lon="4.53561">
        <ele>636</ele>
        <time>2021-03-11T08:52:56Z</time>
      </trkpt>
      <trkpt lat="46.00431" lon="4.53551">
        <ele>637</ele>
        <time>2021-03-11T08:53:06Z</time>
      </trkpt>
      <trkpt lat="46.0043" lon="4.53538">
        <ele>638</ele>
        <time>2021-03-11T08:53:18Z</time>
      </trkpt>
      <trkpt lat="46.00422" lon="4.53495">
        <ele>642</ele>
        <time>2021-03-11T08:53:59Z</time>
      </trkpt>
      <trkpt lat="46.00431" lon="4.53509">
        <ele>641</ele>
        <time>2021-03-11T08:54:17Z</time>
      </trkpt>
      <trkpt lat="46.00443" lon="4.53536">
        <ele>640</ele>
        <time>2021-03-11T08:54:47Z</time>
      </trkpt>
      <trkpt lat="46.00445" lon="4.53555">
        <ele>638</ele>
        <time>2021-03-11T08:55:05Z</time>
      </trkpt>
      <trkpt lat="46.00443" lon="4.53536">
        <ele>640</ele>
        <time>2021-03-11T08:55:23Z</time>
      </trkpt>
      <trkpt lat="46.00465" lon="4.5354">
        <ele>642</ele>
        <time>2021-03-11T08:55:52Z</time>
      </trkpt>
      <trkpt lat="46.00521" lon="4.53586">
        <ele>642</ele>
        <time>2021-03-11T08:57:18Z</time>
      </trkpt>
      <trkpt lat="46.0055" lon="4.53603">
        <ele>640</ele>
        <time>2021-03-11T08:58:00Z</time>
      </trkpt>
      <trkpt lat="46.00592" lon="4.53604">
        <ele>636</ele>
        <time>2021-03-11T08:58:56Z</time>
      </trkpt>
      <trkpt lat="46.00622" lon="4.53596">
        <ele>634</ele>
        <time>2021-03-11T08:59:37Z</time>
      </trkpt>
      <trkpt lat="46.00653" lon="4.53583">
        <ele>630</ele>
        <time>2021-03-11T09:00:20Z</time>
      </trkpt>
      <trkpt lat="46.00693" lon="4.5358">
        <ele>627</ele>
        <time>2021-03-11T09:01:13Z</time>
      </trkpt>
      <trkpt lat="46.00734" lon="4.53588">
        <ele>628</ele>
        <time>2021-03-11T09:02:08Z</time>
      </trkpt>
      <trkpt lat="46.00762" lon="4.53589">
        <ele>629</ele>
        <time>2021-03-11T09:02:46Z</time>
      </trkpt>
      <trkpt lat="46.00847" lon="4.53578">
        <ele>631</ele>
        <time>2021-03-11T09:04:40Z</time>
      </trkpt>
      <trkpt lat="46.00898" lon="4.53583">
        <ele>636</ele>
        <time>2021-03-11T09:05:48Z</time>
      </trkpt>
      <trkpt lat="46.00937" lon="4.53576">
        <ele>635</ele>
        <time>2021-03-11T09:06:40Z</time>
      </trkpt>
      <trkpt lat="46.01011" lon="4.53582">
        <ele>638</ele>
        <time>2021-03-11T09:08:19Z</time>
      </trkpt>
      <trkpt lat="46.01067" lon="4.5361">
        <ele>638</ele>
        <time>2021-03-11T09:09:38Z</time>
      </trkpt>
      <trkpt lat="46.01113" lon="4.53658">
        <ele>645</ele>
        <time>2021-03-11T09:10:54Z</time>
      </trkpt>
      <trkpt lat="46.0113" lon="4.5368">
        <ele>643</ele>
        <time>2021-03-11T09:11:25Z</time>
      </trkpt>
      <trkpt lat="46.01135" lon="4.53708">
        <ele>643</ele>
        <time>2021-03-11T09:11:52Z</time>
      </trkpt>
      <trkpt lat="46.01119" lon="4.53734">
        <ele>649</ele>
        <time>2021-03-11T09:12:24Z</time>
      </trkpt>
      <trkpt lat="46.01097" lon="4.53759">
        <ele>658</ele>
        <time>2021-03-11T09:13:01Z</time>
      </trkpt>
      <trkpt lat="46.01075" lon="4.53849">
        <ele>657</ele>
        <time>2021-03-11T09:14:30Z</time>
      </trkpt>
      <trkpt lat="46.01075" lon="4.53931">
        <ele>652</ele>
        <time>2021-03-11T09:15:46Z</time>
      </trkpt>
      <trkpt lat="46.01066" lon="4.54011">
        <ele>650</ele>
        <time>2021-03-11T09:17:01Z</time>
      </trkpt>
      <trkpt lat="46.01039" lon="4.54059">
        <ele>651</ele>
        <time>2021-03-11T09:17:58Z</time>
      </trkpt>
      <trkpt lat="46.00972" lon="4.5411">
        <ele>659</ele>
        <time>2021-03-11T09:19:39Z</time>
      </trkpt>
      <trkpt lat="46.00988" lon="4.54113">
        <ele>655</ele>
        <time>2021-03-11T09:20:01Z</time>
      </trkpt>
      <trkpt lat="46.01033" lon="4.5411">
        <ele>646</ele>
        <time>2021-03-11T09:21:01Z</time>
      </trkpt>
      <trkpt lat="46.01068" lon="4.54095">
        <ele>639</ele>
        <time>2021-03-11T09:21:49Z</time>
      </trkpt>
      <trkpt lat="46.01082" lon="4.54092">
        <ele>636</ele>
        <time>2021-03-11T09:22:08Z</time>
      </trkpt>
      <trkpt lat="46.01093" lon="4.5408">
        <ele>633</ele>
        <time>2021-03-11T09:22:27Z</time>
      </trkpt>
      <trkpt lat="46.01106" lon="4.54075">
        <ele>630</ele>
        <time>2021-03-11T09:22:45Z</time>
      </trkpt>
      <trkpt lat="46.01122" lon="4.54078">
        <ele>625</ele>
        <time>2021-03-11T09:23:06Z</time>
      </trkpt>
      <trkpt lat="46.01129" lon="4.54085">
        <ele>622</ele>
        <time>2021-03-11T09:23:18Z</time>
      </trkpt>
      <trkpt lat="46.01134" lon="4.54101">
        <ele>623</ele>
        <time>2021-03-11T09:23:34Z</time>
      </trkpt>
      <trkpt lat="46.01139" lon="4.54124">
        <ele>625</ele>
        <time>2021-03-11T09:23:56Z</time>
      </trkpt>
      <trkpt lat="46.01131" lon="4.54129">
        <ele>627</ele>
        <time>2021-03-11T09:24:08Z</time>
      </trkpt>
      <trkpt lat="46.0114" lon="4.54133">
        <ele>626</ele>
        <time>2021-03-11T09:24:20Z</time>
      </trkpt>
      <trkpt lat="46.01198" lon="4.54124">
        <ele>620</ele>
        <time>2021-03-11T09:25:38Z</time>
      </trkpt>
      <trkpt lat="46.01226" lon="4.54115">
        <ele>617</ele>
        <time>2021-03-11T09:26:17Z</time>
      </trkpt>
      <trkpt lat="46.01238" lon="4.54108">
        <ele>615</ele>
        <time>2021-03-11T09:26:34Z</time>
      </trkpt>
      <trkpt lat="46.01265" lon="4.54104">
        <ele>610</ele>
        <time>2021-03-11T09:27:10Z</time>
      </trkpt>
      <trkpt lat="46.01276" lon="4.54114">
        <ele>609</ele>
        <time>2021-03-11T09:27:27Z</time>
      </trkpt>
      <trkpt lat="46.01281" lon="4.54132">
        <ele>611</ele>
        <time>2021-03-11T09:27:45Z</time>
      </trkpt>
      <trkpt lat="46.01284" lon="4.54172">
        <ele>617</ele>
        <time>2021-03-11T09:28:23Z</time>
      </trkpt>
      <trkpt lat="46.01281" lon="4.54183">
        <ele>620</ele>
        <time>2021-03-11T09:28:34Z</time>
      </trkpt>
      <trkpt lat="46.01293" lon="4.54207">
        <ele>619</ele>
        <time>2021-03-11T09:29:01Z</time>
      </trkpt>
      <trkpt lat="46.01299" lon="4.54225">
        <ele>619</ele>
        <time>2021-03-11T09:29:19Z</time>
      </trkpt>
      <trkpt lat="46.01313" lon="4.54244">
        <ele>616</ele>
        <time>2021-03-11T09:29:45Z</time>
      </trkpt>
      <trkpt lat="46.01321" lon="4.5426">
        <ele>616</ele>
        <time>2021-03-11T09:30:03Z</time>
      </trkpt>
      <trkpt lat="46.01323" lon="4.54268">
        <ele>617</ele>
        <time>2021-03-11T09:30:11Z</time>
      </trkpt>
      <trkpt lat="46.01318" lon="4.54271">
        <ele>620</ele>
        <time>2021-03-11T09:30:19Z</time>
      </trkpt>
      <trkpt lat="46.01323" lon="4.54198">
        <ele>605</ele>
        <time>2021-03-11T09:31:27Z</time>
      </trkpt>
      <trkpt lat="46.01323" lon="4.54198">
        <ele>605</ele>
        <time>2021-03-11T09:31:27Z</time>
      </trkpt>
      <trkpt lat="46.01353" lon="4.5424">
        <ele>609</ele>
        <time>2021-03-11T09:32:22Z</time>
      </trkpt>
      <trkpt lat="46.01353" lon="4.5424">
        <ele>609</ele>
        <time>2021-03-11T09:32:22Z</time>
      </trkpt>
      <trkpt lat="46.0138" lon="4.54222">
        <ele>606</ele>
        <time>2021-03-11T09:33:02Z</time>
      </trkpt>
      <trkpt lat="46.0138" lon="4.54222">
        <ele>606</ele>
        <time>2021-03-11T09:33:02Z</time>
      </trkpt>
      <trkpt lat="46.01418" lon="4.54134">
        <ele>585</ele>
        <time>2021-03-11T09:34:38Z</time>
      </trkpt>
      <trkpt lat="46.01418" lon="4.54134">
        <ele>585</ele>
        <time>2021-03-11T09:34:38Z</time>
      </trkpt>
      <trkpt lat="46.01462" lon="4.54061">
        <ele>567</ele>
        <time>2021-03-11T09:36:08Z</time>
      </trkpt>
      <trkpt lat="46.01462" lon="4.54061">
        <ele>567</ele>
        <time>2021-03-11T09:36:08Z</time>
      </trkpt>
      <trkpt lat="46.01662" lon="4.5424">
        <ele>583</ele>
        <time>2021-03-11T09:41:22Z</time>
      </trkpt>
      <trkpt lat="46.01662" lon="4.5424">
        <ele>583</ele>
        <time>2021-03-11T09:41:22Z</time>
      </trkpt>
      <trkpt lat="46.01609" lon="4.54102">
        <ele>566</ele>
        <time>2021-03-11T09:43:48Z</time>
      </trkpt>
      <trkpt lat="46.01609" lon="4.54102">
        <ele>566</ele>
        <time>2021-03-11T09:43:48Z</time>
      </trkpt>
      <trkpt lat="46.01533" lon="4.54011">
        <ele>554</ele>
        <time>2021-03-11T09:46:00Z</time>
      </trkpt>
      <trkpt lat="46.01533" lon="4.54011">
        <ele>554</ele>
        <time>2021-03-11T09:46:00Z</time>
      </trkpt>
      <trkpt lat="46.01527" lon="4.5389">
        <ele>536</ele>
        <time>2021-03-11T09:47:52Z</time>
      </trkpt>
      <trkpt lat="46.01533" lon="4.53873">
        <ele>535</ele>
        <time>2021-03-11T09:48:10Z</time>
      </trkpt>
      <trkpt lat="46.01528" lon="4.53864">
        <ele>533</ele>
        <time>2021-03-11T09:48:21Z</time>
      </trkpt>
      <trkpt lat="46.01534" lon="4.53844">
        <ele>531</ele>
        <time>2021-03-11T09:48:41Z</time>
      </trkpt>
      <trkpt lat="46.01552" lon="4.53824">
        <ele>529</ele>
        <time>2021-03-11T09:49:11Z</time>
      </trkpt>
      <trkpt lat="46.01587" lon="4.53764">
        <ele>522</ele>
        <time>2021-03-11T09:50:24Z</time>
      </trkpt>
      <trkpt lat="46.01597" lon="4.53742">
        <ele>523</ele>
        <time>2021-03-11T09:50:48Z</time>
      </trkpt>
      <trkpt lat="46.01597" lon="4.53716">
        <ele>520</ele>
        <time>2021-03-11T09:51:12Z</time>
      </trkpt>
      <trkpt lat="46.01604" lon="4.53668">
        <ele>516</ele>
        <time>2021-03-11T09:51:58Z</time>
      </trkpt>
      <trkpt lat="46.0161" lon="4.53653">
        <ele>516</ele>
        <time>2021-03-11T09:52:14Z</time>
      </trkpt>
      <trkpt lat="46.01614" lon="4.53637">
        <ele>515</ele>
        <time>2021-03-11T09:52:30Z</time>
      </trkpt>
      <trkpt lat="46.01625" lon="4.53606">
        <ele>514</ele>
        <time>2021-03-11T09:53:02Z</time>
      </trkpt>
      <trkpt lat="46.01656" lon="4.53546">
        <ele>505</ele>
        <time>2021-03-11T09:54:11Z</time>
      </trkpt>
      <trkpt lat="46.01667" lon="4.53515">
        <ele>500</ele>
        <time>2021-03-11T09:54:44Z</time>
      </trkpt>
      <trkpt lat="46.01709" lon="4.53455">
        <ele>497</ele>
        <time>2021-03-11T09:56:02Z</time>
      </trkpt>
      <trkpt lat="46.01762" lon="4.53399">
        <ele>490</ele>
        <time>2021-03-11T09:57:30Z</time>
      </trkpt>
      <trkpt lat="46.01799" lon="4.5335">
        <ele>486</ele>
        <time>2021-03-11T09:58:37Z</time>
      </trkpt>
      <trkpt lat="46.01802" lon="4.53346">
        <ele>486</ele>
        <time>2021-03-11T09:58:43Z</time>
      </trkpt>
      <trkpt lat="46.01821" lon="4.53318">
        <ele>482</ele>
        <time>2021-03-11T09:59:19Z</time>
      </trkpt>
      <trkpt lat="46.01888" lon="4.53275">
        <ele>478</ele>
        <time>2021-03-11T10:00:57Z</time>
      </trkpt>
      <trkpt lat="46.01919" lon="4.53253">
        <ele>473</ele>
        <time>2021-03-11T10:01:43Z</time>
      </trkpt>
      <trkpt lat="46.01945" lon="4.53229">
        <ele>472</ele>
        <time>2021-03-11T10:02:24Z</time>
      </trkpt>
      <trkpt lat="46.01962" lon="4.53209">
        <ele>471</ele>
        <time>2021-03-11T10:02:54Z</time>
      </trkpt>
      <trkpt lat="46.01963" lon="4.53202">
        <ele>471</ele>
        <time>2021-03-11T10:03:00Z</time>
      </trkpt>
      <trkpt lat="46.01964" lon="4.53189">
        <ele>470</ele>
        <time>2021-03-11T10:03:12Z</time>
      </trkpt>
      <trkpt lat="46.01959" lon="4.53161">
        <ele>467</ele>
        <time>2021-03-11T10:03:39Z</time>
      </trkpt>
      <trkpt lat="46.01959" lon="4.53133">
        <ele>466</ele>
        <time>2021-03-11T10:04:05Z</time>
      </trkpt>
      <trkpt lat="46.01961" lon="4.53124">
        <ele>466</ele>
        <time>2021-03-11T10:04:14Z</time>
      </trkpt>
      <trkpt lat="46.01965" lon="4.53104">
        <ele>465</ele>
        <time>2021-03-11T10:04:33Z</time>
      </trkpt>
      <trkpt lat="46.01998" lon="4.53023">
        <ele>453</ele>
        <time>2021-03-11T10:06:00Z</time>
      </trkpt>
      <trkpt lat="46.02015" lon="4.52978">
        <ele>450</ele>
        <time>2021-03-11T10:06:48Z</time>
      </trkpt>
      <trkpt lat="46.02039" lon="4.52926">
        <ele>448</ele>
        <time>2021-03-11T10:07:45Z</time>
      </trkpt>
      <trkpt lat="46.02055" lon="4.52899">
        <ele>447</ele>
        <time>2021-03-11T10:08:18Z</time>
      </trkpt>
      <trkpt lat="46.02059" lon="4.52872">
        <ele>445</ele>
        <time>2021-03-11T10:08:44Z</time>
      </trkpt>
      <trkpt lat="46.02056" lon="4.52864">
        <ele>444</ele>
        <time>2021-03-11T10:08:52Z</time>
      </trkpt>
      <trkpt lat="46.02044" lon="4.5282">
        <ele>441</ele>
        <time>2021-03-11T10:09:36Z</time>
      </trkpt>
      <trkpt lat="46.02041" lon="4.52788">
        <ele>440</ele>
        <time>2021-03-11T10:10:06Z</time>
      </trkpt>
      <trkpt lat="46.02047" lon="4.5275">
        <ele>438</ele>
        <time>2021-03-11T10:10:42Z</time>
      </trkpt>
      <trkpt lat="46.02066" lon="4.527">
        <ele>431</ele>
        <time>2021-03-11T10:11:35Z</time>
      </trkpt>
      <trkpt lat="46.02072" lon="4.5267">
        <ele>428</ele>
        <time>2021-03-11T10:12:04Z</time>
      </trkpt>
      <trkpt lat="46.02072" lon="4.52623">
        <ele>423</ele>
        <time>2021-03-11T10:12:47Z</time>
      </trkpt>
      <trkpt lat="46.02068" lon="4.52598">
        <ele>421</ele>
        <time>2021-03-11T10:13:11Z</time>
      </trkpt>
      <trkpt lat="46.02066" lon="4.52591">
        <ele>420</ele>
        <time>2021-03-11T10:13:18Z</time>
      </trkpt>
      <trkpt lat="46.02062" lon="4.52588">
        <ele>420</ele>
        <time>2021-03-11T10:13:24Z</time>
      </trkpt>
      <trkpt lat="46.02058" lon="4.52583">
        <ele>420</ele>
        <time>2021-03-11T10:13:31Z</time>
      </trkpt>
      <trkpt lat="46.02055" lon="4.52575">
        <ele>420</ele>
        <time>2021-03-11T10:13:40Z</time>
      </trkpt>
      <trkpt lat="46.02051" lon="4.52562">
        <ele>419</ele>
        <time>2021-03-11T10:13:53Z</time>
      </trkpt>
      <trkpt lat="46.02048" lon="4.52548">
        <ele>419</ele>
        <time>2021-03-11T10:14:07Z</time>
      </trkpt>
      <trkpt lat="46.02049" lon="4.52532">
        <ele>418</ele>
        <time>2021-03-11T10:14:21Z</time>
      </trkpt>
      <trkpt lat="46.02052" lon="4.52519">
        <ele>417</ele>
        <time>2021-03-11T10:14:34Z</time>
      </trkpt>
      <trkpt lat="46.02054" lon="4.52512">
        <ele>416</ele>
        <time>2021-03-11T10:14:41Z</time>
      </trkpt>
      <trkpt lat="46.02054" lon="4.52501">
        <ele>416</ele>
        <time>2021-03-11T10:14:51Z</time>
      </trkpt>
      <trkpt lat="46.0206" lon="4.52479">
        <ele>417</ele>
        <time>2021-03-11T10:15:13Z</time>
      </trkpt>
      <trkpt lat="46.02067" lon="4.52469">
        <ele>417</ele>
        <time>2021-03-11T10:15:26Z</time>
      </trkpt>
      <trkpt lat="46.02095" lon="4.52437">
        <ele>416</ele>
        <time>2021-03-11T10:16:14Z</time>
      </trkpt>
      <trkpt lat="46.02136" lon="4.52399">
        <ele>413</ele>
        <time>2021-03-11T10:17:19Z</time>
      </trkpt>
      <trkpt lat="46.02176" lon="4.52373">
        <ele>411</ele>
        <time>2021-03-11T10:18:18Z</time>
      </trkpt>
      <trkpt lat="46.02191" lon="4.52362">
        <ele>411</ele>
        <time>2021-03-11T10:18:40Z</time>
      </trkpt>
      <trkpt lat="46.02196" lon="4.52354">
        <ele>411</ele>
        <time>2021-03-11T10:18:50Z</time>
      </trkpt>
      <trkpt lat="46.02191" lon="4.52362">
        <ele>411</ele>
        <time>2021-03-11T10:19:00Z</time>
      </trkpt>
      <trkpt lat="46.02194" lon="4.52353">
        <ele>411</ele>
        <time>2021-03-11T10:19:09Z</time>
      </trkpt>
      <trkpt lat="46.02195" lon="4.52342">
        <ele>412</ele>
        <time>2021-03-11T10:19:20Z</time>
      </trkpt>
      <trkpt lat="46.02193" lon="4.52331">
        <ele>413</ele>
        <time>2021-03-11T10:19:30Z</time>
      </trkpt>
      <trkpt lat="46.02185" lon="4.52312">
        <ele>415</ele>
        <time>2021-03-11T10:19:51Z</time>
      </trkpt>
      <trkpt lat="46.02177" lon="4.52298">
        <ele>417</ele>
        <time>2021-03-11T10:20:08Z</time>
      </trkpt>
      <trkpt lat="46.02167" lon="4.52285">
        <ele>419</ele>
        <time>2021-03-11T10:20:26Z</time>
      </trkpt>
      <trkpt lat="46.02145" lon="4.52267">
        <ele>423</ele>
        <time>2021-03-11T10:20:59Z</time>
      </trkpt>
      <trkpt lat="46.02135" lon="4.52266">
        <ele>424</ele>
        <time>2021-03-11T10:21:13Z</time>
      </trkpt>
      <trkpt lat="46.02074" lon="4.52281">
        <ele>432</ele>
        <time>2021-03-11T10:22:35Z</time>
      </trkpt>
      <trkpt lat="46.02063" lon="4.52281">
        <ele>434</ele>
        <time>2021-03-11T10:22:50Z</time>
      </trkpt>
      <trkpt lat="46.02047" lon="4.52276">
        <ele>437</ele>
        <time>2021-03-11T10:23:12Z</time>
      </trkpt>
      <trkpt lat="46.02043" lon="4.52272">
        <ele>438</ele>
        <time>2021-03-11T10:23:18Z</time>
      </trkpt>
      <trkpt lat="46.02031" lon="4.52231">
        <ele>445</ele>
        <time>2021-03-11T10:24:00Z</time>
      </trkpt>
      <trkpt lat="46.02012" lon="4.52183">
        <ele>455</ele>
        <time>2021-03-11T10:24:51Z</time>
      </trkpt>
      <trkpt lat="46.02001" lon="4.5214">
        <ele>461</ele>
        <time>2021-03-11T10:25:33Z</time>
      </trkpt>
      <trkpt lat="46.01987" lon="4.52101">
        <ele>465</ele>
        <time>2021-03-11T10:26:14Z</time>
      </trkpt>
      <trkpt lat="46.01978" lon="4.5207">
        <ele>469</ele>
        <time>2021-03-11T10:26:45Z</time>
      </trkpt>
      <trkpt lat="46.01977" lon="4.5206">
        <ele>470</ele>
        <time>2021-03-11T10:26:54Z</time>
      </trkpt>
      <trkpt lat="46.01979" lon="4.52042">
        <ele>471</ele>
        <time>2021-03-11T10:27:11Z</time>
      </trkpt>
      <trkpt lat="46.01982" lon="4.52034">
        <ele>471</ele>
        <time>2021-03-11T10:27:20Z</time>
      </trkpt>
      <trkpt lat="46.01986" lon="4.52025">
        <ele>471</ele>
        <time>2021-03-11T10:27:30Z</time>
      </trkpt>
      <trkpt lat="46.01998" lon="4.52022">
        <ele>469</ele>
        <time>2021-03-11T10:27:46Z</time>
      </trkpt>
      <trkpt lat="46.02008" lon="4.52024">
        <ele>467</ele>
        <time>2021-03-11T10:27:59Z</time>
      </trkpt>
      <trkpt lat="46.02016" lon="4.52021">
        <ele>467</ele>
        <time>2021-03-11T10:28:10Z</time>
      </trkpt>
      <trkpt lat="46.02025" lon="4.52011">
        <ele>466</ele>
        <time>2021-03-11T10:28:25Z</time>
      </trkpt>
      <trkpt lat="46.02049" lon="4.51963">
        <ele>473</ele>
        <time>2021-03-11T10:29:20Z</time>
      </trkpt>
      <trkpt lat="46.02054" lon="4.51938">
        <ele>478</ele>
        <time>2021-03-11T10:29:44Z</time>
      </trkpt>
      <trkpt lat="46.02059" lon="4.51928">
        <ele>479</ele>
        <time>2021-03-11T10:29:56Z</time>
      </trkpt>
      <trkpt lat="46.02079" lon="4.51904">
        <ele>480</ele>
        <time>2021-03-11T10:30:31Z</time>
      </trkpt>
      <trkpt lat="46.02127" lon="4.51853">
        <ele>483</ele>
        <time>2021-03-11T10:31:50Z</time>
      </trkpt>
      <trkpt lat="46.02148" lon="4.51824">
        <ele>484</ele>
        <time>2021-03-11T10:32:29Z</time>
      </trkpt>
      <trkpt lat="46.02157" lon="4.51802">
        <ele>485</ele>
        <time>2021-03-11T10:32:53Z</time>
      </trkpt>
      <trkpt lat="46.02162" lon="4.51781">
        <ele>486</ele>
        <time>2021-03-11T10:33:13Z</time>
      </trkpt>
      <trkpt lat="46.02164" lon="4.51764">
        <ele>487</ele>
        <time>2021-03-11T10:33:29Z</time>
      </trkpt>
      <trkpt lat="46.02164" lon="4.51749">
        <ele>488</ele>
        <time>2021-03-11T10:33:43Z</time>
      </trkpt>
      <trkpt lat="46.02161" lon="4.51732">
        <ele>487</ele>
        <time>2021-03-11T10:33:59Z</time>
      </trkpt>
      <trkpt lat="46.02132" lon="4.51658">
        <ele>489</ele>
        <time>2021-03-11T10:35:18Z</time>
      </trkpt>
      <trkpt lat="46.0209" lon="4.51509">
        <ele>489</ele>
        <time>2021-03-11T10:37:47Z</time>
      </trkpt>
      <trkpt lat="46.02094" lon="4.51513">
        <ele>488</ele>
        <time>2021-03-11T10:37:54Z</time>
      </trkpt>
      <trkpt lat="46.0209" lon="4.51509">
        <ele>489</ele>
        <time>2021-03-11T10:38:00Z</time>
      </trkpt>
      <trkpt lat="46.02079" lon="4.51465">
        <ele>493</ele>
        <time>2021-03-11T10:38:43Z</time>
      </trkpt>
      <trkpt lat="46.02076" lon="4.51436">
        <ele>493</ele>
        <time>2021-03-11T10:39:11Z</time>
      </trkpt>
      <trkpt lat="46.02079" lon="4.51415">
        <ele>493</ele>
        <time>2021-03-11T10:39:30Z</time>
      </trkpt>
      <trkpt lat="46.02082" lon="4.51407">
        <ele>493</ele>
        <time>2021-03-11T10:39:39Z</time>
      </trkpt>
      <trkpt lat="46.02092" lon="4.51394">
        <ele>492</ele>
        <time>2021-03-11T10:39:57Z</time>
      </trkpt>
      <trkpt lat="46.02092" lon="4.51389">
        <ele>492</ele>
        <time>2021-03-11T10:40:02Z</time>
      </trkpt>
      <trkpt lat="46.0208" lon="4.51397">
        <ele>494</ele>
        <time>2021-03-11T10:40:19Z</time>
      </trkpt>
      <trkpt lat="46.02077" lon="4.51393">
        <ele>494</ele>
        <time>2021-03-11T10:40:25Z</time>
      </trkpt>
      <trkpt lat="46.02072" lon="4.51392">
        <ele>494</ele>
        <time>2021-03-11T10:40:31Z</time>
      </trkpt>
      <trkpt lat="46.02052" lon="4.51398">
        <ele>495</ele>
        <time>2021-03-11T10:40:59Z</time>
      </trkpt>
      <trkpt lat="46.02052" lon="4.51408">
        <ele>495</ele>
        <time>2021-03-11T10:41:08Z</time>
      </trkpt>
      <trkpt lat="46.02048" lon="4.5142">
        <ele>496</ele>
        <time>2021-03-11T10:41:20Z</time>
      </trkpt>
      <trkpt lat="46.02043" lon="4.51428">
        <ele>497</ele>
        <time>2021-03-11T10:41:30Z</time>
      </trkpt>
      <trkpt lat="46.0203" lon="4.51439">
        <ele>499</ele>
        <time>2021-03-11T10:41:50Z</time>
      </trkpt>
      <trkpt lat="46.0201" lon="4.51449">
        <ele>502</ele>
        <time>2021-03-11T10:42:19Z</time>
      </trkpt>
      <trkpt lat="46.0201" lon="4.51454">
        <ele>503</ele>
        <time>2021-03-11T10:42:23Z</time>
      </trkpt>
      <trkpt lat="46.02016" lon="4.5147">
        <ele>503</ele>
        <time>2021-03-11T10:42:40Z</time>
      </trkpt>
      <trkpt lat="46.01995" lon="4.51488">
        <ele>508</ele>
        <time>2021-03-11T10:43:13Z</time>
      </trkpt>
      <trkpt lat="46.01972" lon="4.51504">
        <ele>512</ele>
        <time>2021-03-11T10:43:47Z</time>
      </trkpt>
      <trkpt lat="46.01948" lon="4.51507">
        <ele>515</ele>
        <time>2021-03-11T10:44:19Z</time>
      </trkpt>
      <trkpt lat="46.0193" lon="4.51505">
        <ele>516</ele>
        <time>2021-03-11T10:44:43Z</time>
      </trkpt>
      <trkpt lat="46.01879" lon="4.51438">
        <ele>518</ele>
        <time>2021-03-11T10:46:15Z</time>
      </trkpt>
      <trkpt lat="46.01866" lon="4.51432">
        <ele>519</ele>
        <time>2021-03-11T10:46:33Z</time>
      </trkpt>
      <trkpt lat="46.01864" lon="4.51444">
        <ele>521</ele>
        <time>2021-03-11T10:46:45Z</time>
      </trkpt>
      <trkpt lat="46.01865" lon="4.51533">
        <ele>531</ele>
        <time>2021-03-11T10:48:07Z</time>
      </trkpt>
      <trkpt lat="46.01855" lon="4.51577">
        <ele>538</ele>
        <time>2021-03-11T10:48:50Z</time>
      </trkpt>
      <trkpt lat="46.0185" lon="4.5161">
        <ele>542</ele>
        <time>2021-03-11T10:49:21Z</time>
      </trkpt>
      <trkpt lat="46.01851" lon="4.51627">
        <ele>544</ele>
        <time>2021-03-11T10:49:37Z</time>
      </trkpt>
      <trkpt lat="46.01858" lon="4.51664">
        <ele>547</ele>
        <time>2021-03-11T10:50:13Z</time>
      </trkpt>
      <trkpt lat="46.01857" lon="4.51692">
        <ele>547</ele>
        <time>2021-03-11T10:50:39Z</time>
      </trkpt>
      <trkpt lat="46.0185" lon="4.51692">
        <ele>548</ele>
        <time>2021-03-11T10:50:48Z</time>
      </trkpt>
      <trkpt lat="46.01844" lon="4.517">
        <ele>549</ele>
        <time>2021-03-11T10:50:59Z</time>
      </trkpt>
      <trkpt lat="46.01844" lon="4.51708">
        <ele>549</ele>
        <time>2021-03-11T10:51:06Z</time>
      </trkpt>
      <trkpt lat="46.01842" lon="4.51712">
        <ele>549</ele>
        <time>2021-03-11T10:51:11Z</time>
      </trkpt>
      <trkpt lat="46.01836" lon="4.51716">
        <ele>550</ele>
        <time>2021-03-11T10:51:20Z</time>
      </trkpt>
      <trkpt lat="46.01831" lon="4.51714">
        <ele>551</ele>
        <time>2021-03-11T10:51:27Z</time>
      </trkpt>
      <trkpt lat="46.01818" lon="4.51704">
        <ele>554</ele>
        <time>2021-03-11T10:51:46Z</time>
      </trkpt>
      <trkpt lat="46.01776" lon="4.51681">
        <ele>565</ele>
        <time>2021-03-11T10:52:46Z</time>
      </trkpt>
      <trkpt lat="46.01757" lon="4.51677">
        <ele>569</ele>
        <time>2021-03-11T10:53:12Z</time>
      </trkpt>
      <trkpt lat="46.01738" lon="4.51677">
        <ele>572</ele>
        <time>2021-03-11T10:53:37Z</time>
      </trkpt>
      <trkpt lat="46.01701" lon="4.5166">
        <ele>576</ele>
        <time>2021-03-11T10:54:29Z</time>
      </trkpt>
      <trkpt lat="46.01689" lon="4.51668">
        <ele>578</ele>
        <time>2021-03-11T10:54:47Z</time>
      </trkpt>
      <trkpt lat="46.01677" lon="4.51653">
        <ele>578</ele>
        <time>2021-03-11T10:55:08Z</time>
      </trkpt>
      <trkpt lat="46.01667" lon="4.51646">
        <ele>579</ele>
        <time>2021-03-11T10:55:23Z</time>
      </trkpt>
      <trkpt lat="46.01669" lon="4.51638">
        <ele>579</ele>
        <time>2021-03-11T10:55:31Z</time>
      </trkpt>
      <trkpt lat="46.01671" lon="4.51636">
        <ele>579</ele>
        <time>2021-03-11T10:55:34Z</time>
      </trkpt>
      <trkpt lat="46.01669" lon="4.51638">
        <ele>579</ele>
        <time>2021-03-11T10:55:37Z</time>
      </trkpt>
      <trkpt lat="46.01666" lon="4.51628">
        <ele>579</ele>
        <time>2021-03-11T10:55:47Z</time>
      </trkpt>
      <trkpt lat="46.01665" lon="4.5161">
        <ele>578</ele>
        <time>2021-03-11T10:56:04Z</time>
      </trkpt>
      <trkpt lat="46.01666" lon="4.51589">
        <ele>578</ele>
        <time>2021-03-11T10:56:24Z</time>
      </trkpt>
      <trkpt lat="46.01668" lon="4.51574">
        <ele>577</ele>
        <time>2021-03-11T10:56:38Z</time>
      </trkpt>
      <trkpt lat="46.01665" lon="4.51374">
        <ele>548</ele>
        <time>2021-03-11T10:59:43Z</time>
      </trkpt>
      <trkpt lat="46.0166" lon="4.51336">
        <ele>544</ele>
        <time>2021-03-11T11:00:19Z</time>
      </trkpt>
      <trkpt lat="46.01661" lon="4.51326">
        <ele>543</ele>
        <time>2021-03-11T11:00:28Z</time>
      </trkpt>
      <trkpt lat="46.01661" lon="4.51244">
        <ele>537</ele>
        <time>2021-03-11T11:01:44Z</time>
      </trkpt>
      <trkpt lat="46.01662" lon="4.51238">
        <ele>537</ele>
        <time>2021-03-11T11:01:50Z</time>
      </trkpt>
      <trkpt lat="46.01667" lon="4.51233">
        <ele>538</ele>
        <time>2021-03-11T11:01:58Z</time>
      </trkpt>
      <trkpt lat="46.01666" lon="4.51223">
        <ele>538</ele>
        <time>2021-03-11T11:02:08Z</time>
      </trkpt>
      <trkpt lat="46.01668" lon="4.51178">
        <ele>539</ele>
        <time>2021-03-11T11:02:49Z</time>
      </trkpt>
    </trkseg>
  </trk>
</gpx>